Location: Unspecified
(0.0000°N, 0.0000°E)
Time: 10:21:08
(UTC+02:00)

Cosmos 1072 Rocket - Visible Passes

Search period start: 26 May 2018 00:00
Search period end: 05 June 2018 00:00
Orbit: 948 x 1009 km, 82.9° (Epoch: 25 May)

Date Brightness Start Highest point End Pass type
(mag) Time Alt. Az. Time Alt. Az. Time Alt. Az.
26 May 6.3 22:30:07 20° NNE 22:30:07 20° NNE 22:31:52 10° N visible
27 May 6.2 22:55:19 26° NNW 22:55:19 26° NNW 22:57:58 10° N visible
28 May 6.0 21:35:44 20° NE 21:35:44 20° NE 21:38:12 10° NE visible
28 May 6.7 23:20:23 20° WNW 23:20:23 20° WNW 23:23:01 10° NW visible
29 May 4.9 22:00:39 49° NE 22:00:39 49° NE 22:05:27 10° NNE visible
30 May 4.9 22:25:22 61° W 22:25:29 62° W 22:31:42 10° N visible
31 May 5.5 21:05:11 22° ESE 21:06:35 24° E 21:11:31 10° NE visible
31 May 6.2 22:49:46 24° WSW 22:51:43 28° W 22:56:58 10° NNW visible
01 Jun 4.6 21:29:07 24° SSE 21:32:52 54° E 21:39:00 10° NNE visible
01 Jun 7.2 23:16:02 10° WSW 23:17:58 11° W 23:19:53 10° WNW visible
02 Jun 4.7 21:52:46 10° S 21:59:09 71° W 22:05:25 10° N visible
03 Jun 5.7 20:35:39 10° SE 20:40:15 21° E 20:44:48 10° NE visible
03 Jun 6.1 22:19:50 10° SSW 22:25:23 32° W 22:30:52 10° NNW visible
04 Jun 4.8 21:00:27 10° SSE 21:06:32 46° E 21:12:31 10° NNE visible
04 Jun 7.2 22:48:41 10° WSW 22:51:38 14° W 22:54:34 10° WNW visible
